Terug naar catalogus

DELTA 1 DEB

ActiefSSO
NORAD 10644·DEBRIS·🇺🇸 United States

Gelanceerd Jul 29, 1976 vanaf Vandenberg Space Force Base

Loading…

Volgende Passages (komende 24 uur)

TLE

VersSource: Space-Track

Epoch: Sep 14, 2026, 09:10 UTC

1 10644U 76077E   26257.38241841 -.00000083  00000-0 -21243-3 0  9993
2 10644 101.3869 221.5632 0105831 200.0731 315.3236 12.61841654305983

Volg DELTA 1 DEB in realtime met AllMySat

Download on the App Store